Hourly Weather Sevan

Today, 5 August, Wednesday

Time Temperature Precipitation Wind Pressure Humidity
00:00 +16°C° 0 mm 3 mps 640 mmHg 76%
01:00 +16°C° 0 mm 3 mps 640 mmHg 76%
02:00 +16°C° 0 mm 3 mps 639 mmHg 76%
03:00 +16°C° 0 mm 3 mps 639 mmHg 75%
04:00 +16°C° 0 mm 3 mps 639 mmHg 75%
05:00 +16°C° 0 mm 2 mps 639 mmHg 76%
06:00 +16°C° 0 mm 2 mps 639 mmHg 76%
07:00 +18°C° 0 mm 2 mps 640 mmHg 70%
08:00 +19°C° 0 mm 2 mps 640 mmHg 64%
09:00 +22°C° 0 mm 1 mps 640 mmHg 58%
10:00 +23°C° 0 mm 2 mps 640 mmHg 55%
11:00 +24°C° 0 mm 2 mps 640 mmHg 52%
12:00 +25°C° 0 mm 2 mps 640 mmHg 49%
13:00 +25°C° 0 mm 2 mps 640 mmHg 48%
14:00 +25°C° 0 mm 2 mps 639 mmHg 47%
15:00 +26°C° 0 mm 2 mps 639 mmHg 47%
16:00 +25°C° 0 mm 3 mps 639 mmHg 50%
17:00 +23°C° 0 mm 4 mps 639 mmHg 53%
18:00 +23°C° 0 mm 4 mps 639 mmHg 56%
19:00 +21°C° 0 mm 4 mps 639 mmHg 60%
20:00 +19°C° 0 mm 4 mps 639 mmHg 64%
21:00 +18°C° 0 mm 4 mps 639 mmHg 68%
22:00 +17°C° 0 mm 4 mps 639 mmHg 68%
23:00 +17°C° 0 mm 3 mps 639 mmHg 68%

Tomorrow, 6 August, Thursday

Time Temperature Precipitation Wind Pressure Humidity
00:00 +16°C° 0 mm 3 mps 639 mmHg 68%
01:00 +16°C° 0 mm 3 mps 639 mmHg 68%
02:00 +16°C° 0 mm 3 mps 639 mmHg 69%
03:00 +14°C° 0 mm 3 mps 639 mmHg 69%
04:00 +15°C° 0 mm 2 mps 639 mmHg 70%
05:00 +16°C° 0 mm 2 mps 639 mmHg 70%
06:00 +16°C° 0 mm 2 mps 639 mmHg 70%
07:00 +18°C° 0 mm 2 mps 640 mmHg 64%
08:00 +19°C° 0 mm 2 mps 641 mmHg 58%
09:00 +21°C° 0 mm 2 mps 641 mmHg 52%
10:00 +24°C° 0 mm 2 mps 641 mmHg 49%
11:00 +25°C° 0 mm 2 mps 642 mmHg 46%
12:00 +26°C° 0 mm 2 mps 642 mmHg 42%
13:00 +26°C° 0 mm 2 mps 642 mmHg 44%
14:00 +26°C° 0 mm 2 mps 642 mmHg 45%
15:00 +26°C° 0 mm 3 mps 642 mmHg 46%
16:00 +25°C° 0 mm 3 mps 642 mmHg 50%
17:00 +25°C° 0 mm 4 mps 641 mmHg 54%
18:00 +23°C° 0 mm 5 mps 641 mmHg 58%
19:00 +21°C° 0 mm 5 mps 641 mmHg 62%
20:00 +20°C° 0 mm 4 mps 642 mmHg 65%
21:00 +18°C° 0 mm 4 mps 642 mmHg 69%
22:00 +18°C° 0 mm 4 mps 642 mmHg 70%
23:00 +17°C° 0 mm 4 mps 642 mmHg 71%

Day after tomorrow, 7 August, Friday

Time Temperature Precipitation Wind Pressure Humidity
00:00 +17°C° 0 mm 3 mps 642 mmHg 71%
01:00 +16°C° 0 mm 3 mps 642 mmHg 71%
02:00 +16°C° 0 mm 3 mps 642 mmHg 71%
03:00 +16°C° 0 mm 3 mps 642 mmHg 71%
04:00 +16°C° 0 mm 3 mps 642 mmHg 71%
05:00 +16°C° 0 mm 3 mps 642 mmHg 71%
06:00 +16°C° 0 mm 2 mps 642 mmHg 71%
07:00 +18°C° 0 mm 2 mps 643 mmHg 64%
08:00 +20°C° 0 mm 2 mps 643 mmHg 58%
09:00 +23°C° 0 mm 1 mps 644 mmHg 52%
10:00 +24°C° 0 mm 2 mps 644 mmHg 49%
11:00 +25°C° 0 mm 2 mps 644 mmHg 45%
12:00 +26°C° 0 mm 2 mps 644 mmHg 42%
13:00 +27°C° 0 mm 2 mps 644 mmHg 41%
14:00 +27°C° 0 mm 2 mps 643 mmHg 40%
15:00 +28°C° 0 mm 2 mps 643 mmHg 39%
16:00 +27°C° 0 mm 3 mps 643 mmHg 43%
17:00 +26°C° 0 mm 4 mps 643 mmHg 47%
18:00 +25°C° 0 mm 4 mps 642 mmHg 51%
19:00 +22°C° 0 mm 4 mps 642 mmHg 55%
20:00 +21°C° 0 mm 4 mps 642 mmHg 60%
21:00 +19°C° 0 mm 4 mps 642 mmHg 64%
22:00 +19°C° 0 mm 4 mps 642 mmHg 65%
23:00 +18°C° 0 mm 3 mps 642 mmHg 66%

8 August, Saturday

Time Temperature Precipitation Wind Pressure Humidity
00:00 +18°C° 0 mm 3 mps 642 mmHg 67%
01:00 +17°C° 0 mm 3 mps 642 mmHg 66%
02:00 +17°C° 0 mm 2 mps 642 mmHg 65%
03:00 +17°C° 0 mm 2 mps 641 mmHg 64%
04:00 +17°C° 0 mm 2 mps 641 mmHg 64%
05:00 +17°C° 0 mm 2 mps 642 mmHg 63%
06:00 +17°C° 0 mm 2 mps 642 mmHg 63%
07:00 +19°C° 0 mm 2 mps 642 mmHg 59%
08:00 +21°C° 0 mm 2 mps 642 mmHg 54%
09:00 +24°C° 0 mm 2 mps 643 mmHg 50%
10:00 +25°C° 0 mm 2 mps 643 mmHg 46%
11:00 +26°C° 0 mm 2 mps 643 mmHg 43%
12:00 +28°C° 0 mm 2 mps 643 mmHg 40%
13:00 +28°C° 0 mm 2 mps 642 mmHg 38%
14:00 +29°C° 0 mm 2 mps 642 mmHg 35%
15:00 +29°C° 0 mm 2 mps 641 mmHg 33%
16:00 +28°C° 0 mm 2 mps 641 mmHg 38%
17:00 +28°C° 0 mm 2 mps 641 mmHg 43%
18:00 +27°C° 0 mm 3 mps 640 mmHg 48%
19:00 +25°C° 0 mm 3 mps 640 mmHg 54%
20:00 +22°C° 0 mm 3 mps 640 mmHg 60%
21:00 +20°C° 0 mm 4 mps 640 mmHg 66%
22:00 +20°C° 0 mm 3 mps 640 mmHg 65%
23:00 +20°C° 0 mm 3 mps 639 mmHg 64%

9 August, Sunday

Time Temperature Precipitation Wind Pressure Humidity
00:00 +19°C° 0 mm 3 mps 639 mmHg 64%
01:00 +19°C° 0 mm 2 mps 639 mmHg 64%
02:00 +19°C° 0 mm 2 mps 639 mmHg 64%
03:00 +18°C° 0 mm 2 mps 639 mmHg 64%
04:00 +18°C° 0 mm 2 mps 639 mmHg 64%
05:00 +18°C° 0 mm 2 mps 639 mmHg 64%
06:00 +19°C° 0 mm 2 mps 639 mmHg 65%
07:00 +21°C° 0 mm 2 mps 639 mmHg 59%
08:00 +24°C° 0 mm 1 mps 640 mmHg 53%
09:00 +26°C° 0 mm 1 mps 640 mmHg 47%
10:00 +27°C° 0 mm 2 mps 640 mmHg 42%
11:00 +28°C° 0 mm 2 mps 640 mmHg 38%
12:00 +29°C° 0 mm 2 mps 640 mmHg 34%
13:00 +30°C° 0 mm 2 mps 640 mmHg 32%
14:00 +31°C° 0 mm 2 mps 640 mmHg 29%
15:00 +31°C° 0 mm 2 mps 640 mmHg 27%
16:00 +30°C° 0.1 mm 2 mps 639 mmHg 33%
17:00 +30°C° 0.1 mm 2 mps 639 mmHg 38%
18:00 +29°C° 0.1 mm 1 mps 638 mmHg 44%
19:00 +27°C° 0 mm 2 mps 638 mmHg 49%
20:00 +25°C° 0 mm 3 mps 638 mmHg 54%
21:00 +22°C° 0 mm 4 mps 638 mmHg 60%
22:00 +22°C° 0 mm 4 mps 638 mmHg 59%
23:00 +21°C° 0 mm 3 mps 638 mmHg 59%

10 August, Monday

Time Temperature Precipitation Wind Pressure Humidity
00:00 +21°C° 0 mm 3 mps 638 mmHg 58%
01:00 +20°C° 0 mm 3 mps 638 mmHg 60%
02:00 +20°C° 0 mm 3 mps 638 mmHg 61%
03:00 +19°C° 0 mm 3 mps 638 mmHg 62%
04:00 +19°C° 0 mm 2 mps 638 mmHg 62%
05:00 +20°C° 0 mm 2 mps 638 mmHg 61%
06:00 +20°C° 0 mm 2 mps 638 mmHg 61%
07:00 +23°C° 0 mm 2 mps 638 mmHg 55%
08:00 +25°C° 0 mm 2 mps 639 mmHg 49%
09:00 +27°C° 0 mm 1 mps 639 mmHg 43%
10:00 +28°C° 0 mm 2 mps 640 mmHg 39%
11:00 +30°C° 0 mm 2 mps 640 mmHg 35%
12:00 +31°C° 0 mm 2 mps 640 mmHg 32%
13:00 +31°C° 0.1 mm 2 mps 640 mmHg 30%
14:00 +32°C° 0.1 mm 2 mps 639 mmHg 28%
15:00 +32°C° 0.1 mm 2 mps 639 mmHg 26%
16:00 +31°C° 0 mm 2 mps 639 mmHg 32%
17:00 +30°C° 0 mm 3 mps 638 mmHg 39%
18:00 +29°C° 0 mm 3 mps 638 mmHg 46%
19:00 +27°C° 0 mm 4 mps 638 mmHg 52%
20:00 +25°C° 0 mm 5 mps 638 mmHg 58%
21:00 +22°C° 0 mm 6 mps 638 mmHg 64%
22:00 +21°C° 0 mm 5 mps 638 mmHg 64%
23:00 +20°C° 0 mm 4 mps 638 mmHg 64%
Show more